K3RTA Weather Reports


time (UTC)temp
F
wind
direction
speed
knots
gust
knots
rain 1hr
in
rain 24hr
in
rain mn
in
humidity
%
barometer
mb
20260507010005 67 297 0.0 0.0 0.00 0.04 0.04 82 1007.2
20260507005006 67 246 0.0 0.0 0.00 0.04 0.04 82 1007.2
20260507003005 67 222 0.0 0.0 0.00 0.04 0.04 82 1007.2
20260507002006 67 196 0.0 0.0 0.00 0.04 0.04 82 1007.3
20260507001006 67 212 0.0 0.9 0.00 0.04 0.04 81 1006.7
20260507000006 68 229 0.0 0.9 0.00 0.04 0.04 80 1006.5
20260506233006 69 241 0.0 0.0 0.00 0.04 0.04 79 1006.4
20260506232005 69 222 0.0 0.0 0.00 0.04 0.04 79 1006.6
20260506231005 69 197 0.0 0.0 0.00 0.04 0.04 78 1006.5
20260506230005 69 229 0.0 0.0 0.00 0.04 0.04 78 1006.4
20260506225005 69 247 0.0 1.7 0.00 0.04 0.04 77 1006.5
20260506224005 69 270 0.0 1.7 0.00 0.04 0.04 77 1006.5
20260506223005 70 253 0.0 2.6 0.00 0.04 0.04 76 1006.5
20260506222006 70 289 0.0 7.0 0.00 0.04 0.04 76 1006.5
20260506221006 70 301 0.0 0.9 0.00 0.04 0.04 76 1006.5
20260506220005 70 251 0.0 1.7 0.00 0.04 0.04 76 1006.3
20260506215006 70 221 0.0 0.9 0.00 0.04 0.04 75 1006.4
20260506213005 71 252 0.0 0.9 0.00 0.04 0.04 75 1006.2
20260506212005 70 193 0.0 2.6 0.00 0.04 0.04 75 1006.2
20260506210005 70 237 0.9 5.2 0.00 0.04 0.04 75 1006.1
20260506205005 70 249 0.0 0.9 0.00 0.04 0.04 75 1006.0
20260506204005 69 256 0.9 10.4 0.00 0.04 0.04 76 1006.1
20260506203005 69 285 0.0 4.3 0.00 0.04 0.04 75 1006.0
20260506202005 69 215 0.9 7.0 0.00 0.04 0.04 76 1005.9
20260506201005 69 227 0.9 4.3 0.00 0.04 0.04 76 1005.9
20260506200005 68 255 0.0 6.1 0.00 0.04 0.04 78 1005.9
20260506195005 68 244 0.0 5.2 0.00 0.04 0.04 78 1006.0
20260506194006 67 258 0.0 6.1 0.00 0.04 0.04 80 1006.2
20260506193006 67 260 0.0 8.7 0.00 0.04 0.04 80 1006.3
20260506192005 66 225 0.9 7.0 0.00 0.04 0.04 80 1006.4
20260506190006 66 236 0.0 8.7 0.00 0.04 0.04 81 1006.6
20260506185005 66 218 0.0 6.1 0.00 0.04 0.04 81 1006.6
20260506184005 66 235 0.0 10.4 0.00 0.04 0.04 81 1006.7
20260506183006 66 203 0.9 13.0 0.00 0.04 0.04 81 1006.9
20260506182005 66 215 0.0 10.4 0.00 0.04 0.04 81 1006.9
20260506180006 65 233 0.9 8.7 0.00 0.04 0.04 81 1007.1
20260506175006 65 267 0.0 5.2 0.00 0.04 0.04 82 1007.1
20260506174005 65 234 0.0 6.1 0.00 0.04 0.04 82 1007.1
20260506173005 65 221 0.0 2.6 0.00 0.04 0.04 83 1007.1
20260506172006 64 225 0.0 2.6 0.00 0.04 0.04 84 1007.3
20260506171005 64 229 0.0 2.6 0.00 0.04 0.04 84 1007.4
20260506170006 64 216 0.0 8.7 0.00 0.04 0.04 84 1007.4
20260506165005 64 215 0.0 2.6 0.01 0.04 0.04 85 1007.4
20260506164005 64 193 0.0 1.7 0.02 0.04 0.04 85 1007.5
20260506163006 64 234 0.0 0.9 0.02 0.04 0.04 86 1007.6
20260506162005 64 204 0.0 7.0 0.03 0.04 0.04 86 1007.8
20260506161005 64 226 0.0 2.6 0.03 0.04 0.04 86 1007.7
20260506160005 63 135 0.0 0.9 0.04 0.04 0.04 85 1008.0
20260506155005 64 160 0.0 1.7 0.03 0.03 0.03 84 1008.3
20260506153005 64 222 0.0 0.9 0.02 0.02 0.02 82 1008.6
20260506150006 66 237 0.0 1.7 0.00 0.00 0.00 75 1008.4
20260506145005 66 221 0.0 1.7 0.00 0.00 0.00 74 1008.5
20260506144005 67 156 1.7 10.4 0.00 0.00 0.00 71 1008.5
20260506143006 68 170 0.0 5.2 0.00 0.00 0.00 70 1008.5
20260506142005 68 175 0.0 8.7 0.00 0.00 0.00 69 1008.5
20260506141005 68 233 0.9 8.7 0.00 0.00 0.00 68 1008.6
20260506140006 68 250 0.0 12.2 0.00 0.00 0.00 66 1008.6
20260506135005 68 225 0.9 12.2 0.00 0.00 0.00 65 1008.4
20260506134005 69 247 0.9 11.3 0.00 0.00 0.00 65 1008.4
20260506133005 69 189 0.9 6.1 0.00 0.00 0.00 66 1008.2
20260506132005 68 179 0.0 11.3 0.00 0.00 0.00 67 1008.3
20260506130005 67 253 0.0 2.6 0.00 0.00 0.00 70 1008.5
20260506124006 67 227 0.9 5.2 0.00 0.00 0.00 70 1008.6
20260506122005 67 173 0.0 2.6 0.00 0.00 0.00 71 1008.6
20260506121006 67 213 0.0 5.2 0.00 0.00 0.00 72 1008.4
20260506120005 66 179 0.0 7.0 0.00 0.00 0.00 73 1008.4
20260506115005 66 140 0.0 2.6 0.00 0.00 0.00 73 1008.3
20260506114006 66 165 0.0 1.7 0.00 0.00 0.00 74 1008.2
20260506113005 66 178 0.0 1.7 0.00 0.00 0.00 74 1008.1
20260506112005 66 231 0.0 5.2 0.00 0.00 0.00 74 1008.2
20260506111005 65 241 0.0 2.6 0.00 0.00 0.00 75 1008.1
20260506110005 65 148 0.0 4.3 0.00 0.00 0.00 75 1008.1
20260506105005 65 200 0.0 1.7 0.00 0.00 0.00 75 1008.0
20260506104006 65 222 0.0 2.6 0.00 0.00 0.00 75 1008.1
20260506103005 65 208 0.0 0.0 0.00 0.00 0.00 76 1008.1
20260506102005 65 193 0.0 1.7 0.00 0.00 0.00 76 1008.1
20260506101005 64 209 0.0 0.0 0.00 0.00 0.00 77 1008.1
20260506095005 64 187 0.0 0.0 0.00 0.00 0.00 77 1008.0
20260506094005 64 222 0.0 7.0 0.00 0.00 0.00 77 1008.1
20260506093005 65 172 0.0 4.3 0.00 0.00 0.00 76 1008.1
20260506092005 65 166 0.0 0.0 0.00 0.00 0.00 76 1008.2
20260506091005 65 217 0.0 0.9 0.00 0.00 0.00 75 1008.1
20260506085005 66 191 0.0 4.3 0.00 0.00 0.00 74 1008.1
20260506084006 66 238 0.0 1.7 0.00 0.00 0.00 74 1008.1
20260506082005 67 220 0.0 10.4 0.00 0.00 0.00 72 1008.1
20260506081006 67 238 0.0 4.3 0.00 0.00 0.00 72 1008.1
20260506073006 67 135 0.0 2.6 0.00 0.00 0.00 72 1008.3
20260506072005 67 214 0.0 0.0 0.00 0.00 0.00 73 1008.4
20260506071005 67 280 0.0 0.0 0.00 0.00 0.00 73 1008.4
20260506062005 68 214 0.0 0.0 0.00 0.00 0.00 72 1008.6
20260506061005 68 235 0.0 2.6 0.00 0.00 0.00 71 1008.7
20260506045005 70 213 0.0 7.0 0.00 0.00 0.00 65 1009.0
20260506044005 70 191 0.0 0.9 0.00 0.00 0.00 64 1009.1
20260506043005 70 165 0.0 2.6 0.00 0.00 0.00 62 1009.1
20260506042005 70 240 0.0 4.3 0.00 0.00 0.00 61 1009.1
20260506040005 70 197 0.0 2.6 0.00 0.00 0.00 60 1009.0
20260506034005 71 136 0.0 0.0 0.00 0.00 0.00 59 1008.9
20260506032005 71 165 0.0 0.0 0.00 0.00 0.00 58 1008.9
20260506031005 71 167 0.0 1.7 0.00 0.00 0.00 58 1009.0
20260506030005 71 169 0.0 2.6 0.00 0.00 0.00 57 1009.0
20260506025005 71 178 0.0 0.0 0.00 0.00 0.00 56 1009.1
20260506024005 71 217 0.0 0.9 0.00 0.00 0.00 56 1009.2
20260506022005 72 145 0.0 2.6 0.00 0.00 0.00 55 1009.2
20260506021005 72 173 0.0 5.2 0.00 0.00 0.00 54 1009.1
20260506015005 73 133 0.0 1.7 0.00 0.00 0.00 53 1008.9
20260506013005 73 150 0.0 0.9 0.00 0.00 0.00 51 1008.7
20260506012005 73 153 0.0 0.9 0.00 0.00 0.00 50 1008.5
20260506011005 74 163 0.0 0.0 0.00 0.00 0.00 49 1008.5